Year,Month,Day,Hour,Minute,Value (Times are PST for temperature in C)
2015,04,02,00,00,5.10
2015,04,02,00,01,5.10
2015,04,02,00,02,5.00
2015,04,02,00,03,4.90
2015,04,02,00,04,4.90
2015,04,02,00,05,4.90
2015,04,02,00,06,4.90
2015,04,02,00,07,4.90
2015,04,02,00,08,4.90
2015,04,02,00,09,4.90
2015,04,02,00,10,4.90
2015,04,02,00,11,4.90
2015,04,02,00,12,4.90
2015,04,02,00,13,4.90
2015,04,02,00,14,4.90
2015,04,02,00,15,4.90
2015,04,02,00,16,4.90
2015,04,02,00,17,4.90
2015,04,02,00,18,4.90
2015,04,02,00,19,4.90
2015,04,02,00,20,4.90
2015,04,02,00,21,4.90
2015,04,02,00,22,4.90
2015,04,02,00,23,4.90
2015,04,02,00,24,4.90
2015,04,02,00,25,4.90
2015,04,02,00,26,4.90
2015,04,02,00,27,4.90
2015,04,02,00,28,4.90
2015,04,02,00,29,4.90
2015,04,02,00,30,4.90
2015,04,02,00,31,4.90
2015,04,02,00,32,4.90
2015,04,02,00,33,4.90
2015,04,02,00,34,4.90
2015,04,02,00,35,4.90
2015,04,02,00,36,4.90
2015,04,02,00,37,4.90
2015,04,02,00,38,4.90
2015,04,02,00,39,4.90
2015,04,02,00,40,4.90
2015,04,02,00,41,4.90
2015,04,02,00,42,4.90
2015,04,02,00,43,4.90
2015,04,02,00,44,4.90
2015,04,02,00,45,4.90
2015,04,02,00,46,4.90
2015,04,02,00,47,4.90
2015,04,02,00,48,4.90
2015,04,02,00,49,4.90
2015,04,02,00,50,4.90
2015,04,02,00,51,4.90
2015,04,02,00,52,4.90
2015,04,02,00,53,4.90
2015,04,02,00,54,4.90
2015,04,02,00,55,4.90
2015,04,02,00,56,4.90
2015,04,02,00,57,4.90
2015,04,02,00,58,4.90
2015,04,02,00,59,4.90
2015,04,02,01,00,4.90
2015,04,02,01,01,4.90
2015,04,02,01,02,4.90
2015,04,02,01,03,4.90
2015,04,02,01,04,4.90
2015,04,02,01,05,4.80
2015,04,02,01,06,4.80
2015,04,02,01,07,4.80
2015,04,02,01,08,4.80
2015,04,02,01,09,4.70
2015,04,02,01,10,4.70
2015,04,02,01,11,4.70
2015,04,02,01,12,4.60
2015,04,02,01,13,4.60
2015,04,02,01,14,4.60
2015,04,02,01,15,4.60
2015,04,02,01,16,4.50
2015,04,02,01,17,4.50
2015,04,02,01,18,4.50
2015,04,02,01,19,4.50
2015,04,02,01,20,4.40
2015,04,02,01,21,4.40
2015,04,02,01,22,4.40
2015,04,02,01,23,4.40
2015,04,02,01,24,4.40
2015,04,02,01,25,4.40
2015,04,02,01,26,4.40
2015,04,02,01,27,4.40
2015,04,02,01,28,4.40
2015,04,02,01,29,4.40
2015,04,02,01,30,4.50
2015,04,02,01,31,4.50
2015,04,02,01,32,4.50
2015,04,02,01,33,4.50
2015,04,02,01,34,4.50
2015,04,02,01,35,4.60
2015,04,02,01,36,4.60
2015,04,02,01,37,4.60
2015,04,02,01,38,4.60
2015,04,02,01,39,4.60
2015,04,02,01,40,4.60
2015,04,02,01,41,4.60
2015,04,02,01,42,4.60
2015,04,02,01,43,4.60
2015,04,02,01,44,4.60
2015,04,02,01,45,4.50
2015,04,02,01,46,4.50
2015,04,02,01,47,4.50
2015,04,02,01,48,4.50
2015,04,02,01,49,4.50
2015,04,02,01,50,4.50
2015,04,02,01,51,4.50
2015,04,02,01,52,4.50
2015,04,02,01,53,4.50
2015,04,02,01,54,4.40
2015,04,02,01,55,4.40
2015,04,02,01,56,4.40
2015,04,02,01,57,4.30
2015,04,02,01,58,4.30
2015,04,02,01,59,4.30
2015,04,02,02,00,4.30
2015,04,02,02,01,4.20
2015,04,02,02,02,4.20
2015,04,02,02,03,4.20
2015,04,02,02,04,4.20
2015,04,02,02,05,4.20
2015,04,02,02,06,4.10
2015,04,02,02,07,4.10
2015,04,02,02,08,4.00
2015,04,02,02,09,4.00
2015,04,02,02,10,4.00
2015,04,02,02,11,4.00
2015,04,02,02,12,4.00
2015,04,02,02,13,4.00
2015,04,02,02,14,4.00
2015,04,02,02,15,3.90
2015,04,02,02,16,3.80
2015,04,02,02,17,3.80
2015,04,02,02,18,3.80
2015,04,02,02,19,3.80
2015,04,02,02,20,3.80
2015,04,02,02,21,3.80
2015,04,02,02,22,3.80
2015,04,02,02,23,3.80
2015,04,02,02,24,3.80
2015,04,02,02,25,3.90
2015,04,02,02,26,3.90
2015,04,02,02,27,4.00
2015,04,02,02,28,4.00
2015,04,02,02,29,4.00
2015,04,02,02,30,4.00
2015,04,02,02,31,4.00
2015,04,02,02,32,3.90
2015,04,02,02,33,3.80
2015,04,02,02,34,3.80
2015,04,02,02,35,3.80
2015,04,02,02,36,3.80
2015,04,02,02,37,3.70
2015,04,02,02,38,3.70
2015,04,02,02,39,3.60
2015,04,02,02,40,3.60
2015,04,02,02,41,3.60
2015,04,02,02,42,3.50
2015,04,02,02,43,3.50
2015,04,02,02,44,3.50
2015,04,02,02,45,3.50
2015,04,02,02,46,3.60
2015,04,02,02,47,3.60
2015,04,02,02,48,3.60
2015,04,02,02,49,3.60
2015,04,02,02,50,3.70
2015,04,02,02,51,3.70
2015,04,02,02,52,3.70
2015,04,02,02,53,3.80
2015,04,02,02,54,3.80
2015,04,02,02,55,3.80
2015,04,02,02,56,3.80
2015,04,02,02,57,3.80
2015,04,02,02,58,3.70
2015,04,02,02,59,3.70
2015,04,02,03,00,3.60
2015,04,02,03,01,3.60
2015,04,02,03,02,3.50
2015,04,02,03,03,3.50
2015,04,02,03,04,3.50
2015,04,02,03,05,3.50
2015,04,02,03,06,3.50
2015,04,02,03,07,3.50
2015,04,02,03,08,3.50
2015,04,02,03,09,3.50
2015,04,02,03,10,3.50
2015,04,02,03,11,3.50
2015,04,02,03,12,3.50
2015,04,02,03,13,3.50
2015,04,02,03,14,3.50
2015,04,02,03,15,3.50
2015,04,02,03,16,3.50
2015,04,02,03,17,3.60
2015,04,02,03,18,3.60
2015,04,02,03,19,3.70
2015,04,02,03,20,3.70
2015,04,02,03,21,3.80
2015,04,02,03,22,3.80
2015,04,02,03,23,3.80
2015,04,02,03,24,3.80
2015,04,02,03,25,3.80
2015,04,02,03,26,3.80
2015,04,02,03,27,3.80
2015,04,02,03,28,3.80
2015,04,02,03,29,3.80
2015,04,02,03,30,3.80
2015,04,02,03,31,3.80
2015,04,02,03,32,3.80
2015,04,02,03,33,3.80
2015,04,02,03,34,3.80
2015,04,02,03,35,3.70
2015,04,02,03,36,3.70
2015,04,02,03,37,3.70
2015,04,02,03,38,3.60
2015,04,02,03,39,3.60
2015,04,02,03,40,3.60
2015,04,02,03,41,3.60
2015,04,02,03,42,3.50
2015,04,02,03,43,3.50
2015,04,02,03,44,3.50
2015,04,02,03,45,3.50
2015,04,02,03,46,3.50
2015,04,02,03,47,3.50
2015,04,02,03,48,3.50
2015,04,02,03,49,3.60
2015,04,02,03,50,3.60
2015,04,02,03,51,3.50
2015,04,02,03,52,3.50
2015,04,02,03,53,3.50
2015,04,02,03,54,3.50
2015,04,02,03,55,3.40
2015,04,02,03,56,3.40
2015,04,02,03,57,3.40
2015,04,02,03,58,3.40
2015,04,02,03,59,3.40
2015,04,02,04,00,3.50
2015,04,02,04,01,3.50
2015,04,02,04,02,3.50
2015,04,02,04,03,3.50
2015,04,02,04,04,3.50
2015,04,02,04,05,3.50
2015,04,02,04,06,3.50
2015,04,02,04,07,3.50
2015,04,02,04,08,3.50
2015,04,02,04,09,3.50
2015,04,02,04,10,3.60
2015,04,02,04,11,3.60
2015,04,02,04,12,3.60
2015,04,02,04,13,3.60
2015,04,02,04,14,3.60
2015,04,02,04,15,3.60
2015,04,02,04,16,3.60
2015,04,02,04,17,3.50
2015,04,02,04,18,3.50
2015,04,02,04,19,3.50
2015,04,02,04,20,3.40
2015,04,02,04,21,3.40
2015,04,02,04,22,3.40
2015,04,02,04,23,3.40
2015,04,02,04,24,3.40
2015,04,02,04,25,3.40
2015,04,02,04,26,3.40
2015,04,02,04,27,3.40
2015,04,02,04,28,3.40
2015,04,02,04,29,3.40
2015,04,02,04,30,3.40
2015,04,02,04,31,3.40
2015,04,02,04,32,3.40
2015,04,02,04,33,3.40
2015,04,02,04,34,3.40
2015,04,02,04,35,3.50
2015,04,02,04,36,3.50
2015,04,02,04,37,3.40
2015,04,02,04,38,3.40
2015,04,02,04,39,3.50
2015,04,02,04,40,3.60
2015,04,02,04,41,3.60
2015,04,02,04,42,3.60
2015,04,02,04,43,3.60
2015,04,02,04,44,3.60
2015,04,02,04,45,3.60
2015,04,02,04,46,3.60
2015,04,02,04,47,3.60
2015,04,02,04,48,3.60
2015,04,02,04,49,3.50
2015,04,02,04,50,3.50
2015,04,02,04,51,3.50
2015,04,02,04,52,3.40
2015,04,02,04,53,3.40
2015,04,02,04,54,3.30
2015,04,02,04,55,3.30
2015,04,02,04,56,3.30
2015,04,02,04,57,3.20
2015,04,02,04,58,3.20
2015,04,02,04,59,3.10
2015,04,02,05,00,3.10
2015,04,02,05,01,3.00
2015,04,02,05,02,2.90
2015,04,02,05,03,2.90
2015,04,02,05,04,2.90
2015,04,02,05,05,2.90
2015,04,02,05,06,2.80
2015,04,02,05,07,2.80
2015,04,02,05,08,2.80
2015,04,02,05,09,2.80
2015,04,02,05,10,2.70
2015,04,02,05,11,2.70
2015,04,02,05,12,2.70
2015,04,02,05,13,2.80
2015,04,02,05,14,2.80
2015,04,02,05,15,2.90
2015,04,02,05,16,2.90
2015,04,02,05,17,2.90
2015,04,02,05,18,2.90
2015,04,02,05,19,3.00
2015,04,02,05,20,3.10
2015,04,02,05,21,3.10
2015,04,02,05,22,3.10
2015,04,02,05,23,3.10
2015,04,02,05,24,3.10
2015,04,02,05,25,3.10
2015,04,02,05,26,3.00
2015,04,02,05,27,2.90
2015,04,02,05,28,2.90
2015,04,02,05,29,2.90
2015,04,02,05,30,2.90
2015,04,02,05,31,2.90
2015,04,02,05,32,2.90
2015,04,02,05,33,2.90
2015,04,02,05,34,2.80
2015,04,02,05,35,2.80
2015,04,02,05,36,2.70
2015,04,02,05,37,2.70
2015,04,02,05,38,2.70
2015,04,02,05,39,2.70
2015,04,02,05,40,2.70
2015,04,02,05,41,2.70
2015,04,02,05,42,2.70
2015,04,02,05,43,2.70
2015,04,02,05,44,2.70
2015,04,02,05,45,2.70
2015,04,02,05,46,2.70
2015,04,02,05,47,2.70
2015,04,02,05,48,2.70
2015,04,02,05,49,2.70
2015,04,02,05,50,2.60
2015,04,02,05,51,2.50
2015,04,02,05,52,2.50
2015,04,02,05,53,2.40
2015,04,02,05,54,2.30
2015,04,02,05,55,2.30
2015,04,02,05,56,2.20
2015,04,02,05,57,2.20
2015,04,02,05,58,2.30
2015,04,02,05,59,2.30
2015,04,02,06,00,2.40
2015,04,02,06,01,2.40
2015,04,02,06,02,2.50
2015,04,02,06,03,2.50
2015,04,02,06,04,2.50
2015,04,02,06,05,2.50
2015,04,02,06,06,2.50
2015,04,02,06,07,2.50
2015,04,02,06,08,2.50
2015,04,02,06,09,2.60
2015,04,02,06,10,2.70
2015,04,02,06,11,2.70
2015,04,02,06,12,2.80
2015,04,02,06,13,2.80
2015,04,02,06,14,2.80
2015,04,02,06,15,2.80
2015,04,02,06,16,2.80
2015,04,02,06,17,2.80
2015,04,02,06,18,2.70
2015,04,02,06,19,2.70
2015,04,02,06,20,2.70
2015,04,02,06,21,2.70
2015,04,02,06,22,2.70
2015,04,02,06,23,2.70
2015,04,02,06,24,2.70
2015,04,02,06,25,2.70
2015,04,02,06,26,2.70
2015,04,02,06,27,2.60
2015,04,02,06,28,2.60
2015,04,02,06,29,2.60
2015,04,02,06,30,2.60
2015,04,02,06,31,2.60
2015,04,02,06,32,2.60
2015,04,02,06,33,2.60
2015,04,02,06,34,2.60
2015,04,02,06,35,2.60
2015,04,02,06,36,2.60
2015,04,02,06,37,2.60
2015,04,02,06,38,2.70
2015,04,02,06,39,2.70
2015,04,02,06,40,2.70
2015,04,02,06,41,2.70
2015,04,02,06,42,2.70
2015,04,02,06,43,2.70
2015,04,02,06,44,2.70
2015,04,02,06,45,2.70
2015,04,02,06,46,2.70
2015,04,02,06,47,2.70
2015,04,02,06,48,2.70
2015,04,02,06,49,2.70
2015,04,02,06,50,2.80
2015,04,02,06,51,2.80
2015,04,02,06,52,2.80
2015,04,02,06,53,2.90
2015,04,02,06,54,2.90
2015,04,02,06,55,2.90
2015,04,02,06,56,2.90
2015,04,02,06,57,2.90
2015,04,02,06,58,2.90
2015,04,02,06,59,2.90
2015,04,02,07,00,2.90
2015,04,02,07,01,2.90
2015,04,02,07,02,3.00
2015,04,02,07,03,3.10
2015,04,02,07,04,3.10
2015,04,02,07,05,3.20
2015,04,02,07,06,3.20
2015,04,02,07,07,3.20
2015,04,02,07,08,3.20
2015,04,02,07,09,3.30
2015,04,02,07,10,3.30
2015,04,02,07,11,3.20
2015,04,02,07,12,3.20
2015,04,02,07,13,3.20
2015,04,02,07,14,3.10
2015,04,02,07,15,3.10
2015,04,02,07,16,3.10
2015,04,02,07,17,3.10
2015,04,02,07,18,3.10
2015,04,02,07,19,3.10
2015,04,02,07,20,3.10
2015,04,02,07,21,3.10
2015,04,02,07,22,3.10
2015,04,02,07,23,3.20
2015,04,02,07,24,3.20
2015,04,02,07,25,3.20
2015,04,02,07,26,3.30
2015,04,02,07,27,3.30
2015,04,02,07,28,3.40
2015,04,02,07,29,3.40
2015,04,02,07,30,3.50
2015,04,02,07,31,3.50
2015,04,02,07,32,3.60
2015,04,02,07,33,3.60
2015,04,02,07,34,3.60
2015,04,02,07,35,3.60
2015,04,02,07,36,3.60
2015,04,02,07,37,3.60
2015,04,02,07,38,3.60
2015,04,02,07,39,3.60
2015,04,02,07,40,3.60
2015,04,02,07,41,3.60
2015,04,02,07,42,3.70
2015,04,02,07,43,3.70
2015,04,02,07,44,3.80
2015,04,02,07,45,3.80
2015,04,02,07,46,3.80
2015,04,02,07,47,3.80
2015,04,02,07,48,3.80
2015,04,02,07,49,3.80
2015,04,02,07,50,3.80
2015,04,02,07,51,3.90
2015,04,02,07,52,3.90
2015,04,02,07,53,4.00
2015,04,02,07,54,4.10
2015,04,02,07,55,4.20
2015,04,02,07,56,4.20
2015,04,02,07,57,4.30
2015,04,02,07,58,4.40
2015,04,02,07,59,4.50
2015,04,02,08,00,4.50
2015,04,02,08,01,4.60
2015,04,02,08,02,4.60
2015,04,02,08,03,4.70
2015,04,02,08,04,4.70
2015,04,02,08,05,4.80
2015,04,02,08,06,4.80
2015,04,02,08,07,4.80
2015,04,02,08,08,4.90
2015,04,02,08,09,4.90
2015,04,02,08,10,4.90
2015,04,02,08,11,4.90
2015,04,02,08,12,4.90
2015,04,02,08,13,4.90
2015,04,02,08,14,4.90
2015,04,02,08,15,4.90
2015,04,02,08,16,4.90
2015,04,02,08,17,4.90
2015,04,02,08,18,4.90
2015,04,02,08,19,4.90
2015,04,02,08,20,4.90
2015,04,02,08,21,4.90
2015,04,02,08,22,4.90
2015,04,02,08,23,5.00
2015,04,02,08,24,5.10
2015,04,02,08,25,5.10
2015,04,02,08,26,5.10
2015,04,02,08,27,5.20
2015,04,02,08,28,5.30
2015,04,02,08,29,5.40
2015,04,02,08,30,5.50
2015,04,02,08,31,5.70
2015,04,02,08,32,5.80
2015,04,02,08,33,5.90
2015,04,02,08,34,6.00
2015,04,02,08,35,6.10
2015,04,02,08,36,6.20
2015,04,02,08,37,6.20
2015,04,02,08,38,6.30
2015,04,02,08,39,6.50
2015,04,02,08,40,6.60
2015,04,02,08,41,6.70
2015,04,02,08,42,6.90
2015,04,02,08,43,7.00
2015,04,02,08,44,7.00
2015,04,02,08,45,7.00
2015,04,02,08,46,7.00
2015,04,02,08,47,7.00
2015,04,02,08,48,6.90
2015,04,02,08,49,6.90
2015,04,02,08,50,7.00
2015,04,02,08,51,7.00
2015,04,02,08,52,7.10
2015,04,02,08,53,7.10
2015,04,02,08,54,7.10
2015,04,02,08,55,7.10
2015,04,02,08,56,7.10
2015,04,02,08,57,7.20
2015,04,02,08,58,7.30
2015,04,02,08,59,7.30
2015,04,02,09,00,7.20
2015,04,02,09,01,7.20
2015,04,02,09,02,7.10
2015,04,02,09,03,7.20
2015,04,02,09,04,7.20
2015,04,02,09,05,7.20
2015,04,02,09,06,7.20
2015,04,02,09,07,7.20
2015,04,02,09,08,7.30
2015,04,02,09,09,7.20
2015,04,02,09,10,7.20
2015,04,02,09,11,7.20
2015,04,02,09,12,7.30
2015,04,02,09,13,7.20
2015,04,02,09,14,7.20
2015,04,02,09,15,7.20
2015,04,02,09,16,7.20
2015,04,02,09,17,7.20
2015,04,02,09,18,7.30
2015,04,02,09,19,7.30
2015,04,02,09,20,7.30
2015,04,02,09,21,7.30
2015,04,02,09,22,7.40
2015,04,02,09,23,7.40
2015,04,02,09,24,7.50
2015,04,02,09,25,7.50
2015,04,02,09,26,7.50
2015,04,02,09,27,7.50
2015,04,02,09,28,7.40
2015,04,02,09,29,7.50
2015,04,02,09,30,7.50
2015,04,02,09,31,7.50
2015,04,02,09,32,7.50
2015,04,02,09,33,7.60
2015,04,02,09,34,7.60
2015,04,02,09,35,7.60
2015,04,02,09,36,7.70
2015,04,02,09,37,7.70
2015,04,02,09,38,7.80
2015,04,02,09,39,7.90
2015,04,02,09,40,8.00
2015,04,02,09,41,8.10
2015,04,02,09,42,8.10
2015,04,02,09,43,8.20
2015,04,02,09,44,8.20
2015,04,02,09,45,8.20
2015,04,02,09,46,8.40
2015,04,02,09,47,8.40
2015,04,02,09,48,8.50
2015,04,02,09,49,8.50
2015,04,02,09,50,8.60
2015,04,02,09,51,8.70
2015,04,02,09,52,8.70
2015,04,02,09,53,8.80
2015,04,02,09,54,8.80
2015,04,02,09,55,8.80
2015,04,02,09,56,8.70
2015,04,02,09,57,8.80
2015,04,02,09,58,8.80
2015,04,02,09,59,8.90
2015,04,02,10,00,8.90
2015,04,02,10,01,8.90
2015,04,02,10,02,9.00
2015,04,02,10,03,9.00
2015,04,02,10,04,8.90
2015,04,02,10,05,8.80
2015,04,02,10,06,8.60
2015,04,02,10,07,8.50
2015,04,02,10,08,8.40
2015,04,02,10,09,8.40
2015,04,02,10,10,8.40
2015,04,02,10,11,8.40
2015,04,02,10,12,8.30
2015,04,02,10,13,8.30
2015,04,02,10,14,8.40
2015,04,02,10,15,8.40
2015,04,02,10,16,8.30
2015,04,02,10,17,8.30
2015,04,02,10,18,8.20
2015,04,02,10,19,8.20
2015,04,02,10,20,8.30
2015,04,02,10,21,8.40
2015,04,02,10,22,8.40
2015,04,02,10,23,8.40
2015,04,02,10,24,8.50
2015,04,02,10,25,8.50
2015,04,02,10,26,8.60
2015,04,02,10,27,8.70
2015,04,02,10,28,8.80
2015,04,02,10,29,8.90
2015,04,02,10,30,8.90
2015,04,02,10,31,9.00
2015,04,02,10,32,9.00
2015,04,02,10,33,9.00
2015,04,02,10,34,9.10
2015,04,02,10,35,9.20
2015,04,02,10,36,9.30
2015,04,02,10,37,9.30
2015,04,02,10,38,9.20
2015,04,02,10,39,9.20
2015,04,02,10,40,9.20
2015,04,02,10,41,9.10
2015,04,02,10,42,9.10
2015,04,02,10,43,8.90
2015,04,02,10,44,8.80
2015,04,02,10,45,8.70
2015,04,02,10,46,8.60
2015,04,02,10,47,8.50
2015,04,02,10,48,8.40
2015,04,02,10,49,8.40
2015,04,02,10,50,8.40
2015,04,02,10,51,8.40
2015,04,02,10,52,8.50
2015,04,02,10,53,8.50
2015,04,02,10,54,8.50
2015,04,02,10,55,8.60
2015,04,02,10,56,8.70
2015,04,02,10,57,8.70
2015,04,02,10,58,8.70
2015,04,02,10,59,8.80
2015,04,02,11,00,8.90
2015,04,02,11,01,8.90
2015,04,02,11,02,9.00
2015,04,02,11,03,9.00
2015,04,02,11,04,9.10
2015,04,02,11,05,9.20
2015,04,02,11,06,9.20
2015,04,02,11,07,9.40
2015,04,02,11,08,9.40
2015,04,02,11,09,9.50
2015,04,02,11,10,9.50
2015,04,02,11,11,9.50
2015,04,02,11,12,9.60
2015,04,02,11,13,9.60
2015,04,02,11,14,9.70
2015,04,02,11,15,9.80
2015,04,02,11,16,9.90
2015,04,02,11,17,10.10
2015,04,02,11,18,10.10
2015,04,02,11,19,10.10
2015,04,02,11,20,10.10
2015,04,02,11,21,10.10
2015,04,02,11,22,10.20
2015,04,02,11,23,10.30
2015,04,02,11,24,10.30
2015,04,02,11,25,10.40
2015,04,02,11,26,10.40
2015,04,02,11,27,10.40
2015,04,02,11,28,10.40
2015,04,02,11,29,10.40
2015,04,02,11,30,10.40
2015,04,02,11,31,10.40
2015,04,02,11,32,10.50
2015,04,02,11,33,10.60
2015,04,02,11,34,10.60
2015,04,02,11,35,10.60
2015,04,02,11,36,10.60
2015,04,02,11,37,10.60
2015,04,02,11,38,10.50
2015,04,02,11,39,10.30
2015,04,02,11,40,10.20
2015,04,02,11,41,10.10
2015,04,02,11,42,10.00
2015,04,02,11,43,9.90
2015,04,02,11,44,9.80
2015,04,02,11,45,9.70
2015,04,02,11,46,9.70
2015,04,02,11,47,9.60
2015,04,02,11,48,9.50
2015,04,02,11,49,9.40
2015,04,02,11,50,9.40
2015,04,02,11,51,9.30
2015,04,02,11,52,9.30
2015,04,02,11,53,9.30
2015,04,02,11,54,9.30
2015,04,02,11,55,9.30
2015,04,02,11,56,9.30
2015,04,02,11,57,9.20
2015,04,02,11,58,9.20
2015,04,02,11,59,9.10
2015,04,02,12,00,9.00
2015,04,02,12,01,9.10
2015,04,02,12,02,9.10
2015,04,02,12,03,9.20
2015,04,02,12,04,9.20
2015,04,02,12,05,9.20
2015,04,02,12,06,9.30
2015,04,02,12,07,9.40
2015,04,02,12,08,9.50
2015,04,02,12,09,9.50
2015,04,02,12,10,9.50
2015,04,02,12,11,9.50
2015,04,02,12,12,9.60
2015,04,02,12,13,9.70
2015,04,02,12,14,9.70
2015,04,02,12,15,9.70
2015,04,02,12,16,9.70
2015,04,02,12,17,9.70
2015,04,02,12,18,9.80
2015,04,02,12,19,9.80
2015,04,02,12,20,9.90
2015,04,02,12,21,10.10
2015,04,02,12,22,10.10
2015,04,02,12,23,10.10
2015,04,02,12,24,10.20
2015,04,02,12,25,10.20
2015,04,02,12,26,10.30
2015,04,02,12,27,10.40
2015,04,02,12,28,10.50
2015,04,02,12,29,10.70
2015,04,02,12,30,10.90
2015,04,02,12,31,11.10
2015,04,02,12,32,11.20
2015,04,02,12,33,11.20
2015,04,02,12,34,11.30
2015,04,02,12,35,11.30
2015,04,02,12,36,11.30
2015,04,02,12,37,11.30
2015,04,02,12,38,11.20
2015,04,02,12,39,11.20
2015,04,02,12,40,11.10
2015,04,02,12,41,11.10
2015,04,02,12,42,11.10
2015,04,02,12,43,11.10
2015,04,02,12,44,11.10
2015,04,02,12,45,11.10
2015,04,02,12,46,11.10
2015,04,02,12,47,11.20
2015,04,02,12,48,11.20
2015,04,02,12,49,11.20
2015,04,02,12,50,11.20
2015,04,02,12,51,11.30
2015,04,02,12,52,11.30
2015,04,02,12,53,11.30
2015,04,02,12,54,11.30
2015,04,02,12,55,11.30
2015,04,02,12,56,11.30
2015,04,02,12,57,11.30
2015,04,02,12,58,11.40
2015,04,02,12,59,11.40
2015,04,02,13,00,11.50
2015,04,02,13,01,11.60
2015,04,02,13,02,11.50
2015,04,02,13,03,11.40
2015,04,02,13,04,11.40
2015,04,02,13,05,11.30
2015,04,02,13,06,11.10
2015,04,02,13,07,11.00
2015,04,02,13,08,10.90
2015,04,02,13,09,10.80
2015,04,02,13,10,10.70
2015,04,02,13,11,10.40
2015,04,02,13,12,10.20
2015,04,02,13,13,10.10
2015,04,02,13,14,10.10
2015,04,02,13,15,10.20
2015,04,02,13,16,10.30
2015,04,02,13,17,10.30
2015,04,02,13,18,10.20
2015,04,02,13,19,10.20
2015,04,02,13,20,10.20
2015,04,02,13,21,10.30
2015,04,02,13,22,10.40
2015,04,02,13,23,10.40
2015,04,02,13,24,10.40
2015,04,02,13,25,10.40
2015,04,02,13,26,10.50
2015,04,02,13,27,10.50
2015,04,02,13,28,10.40
2015,04,02,13,29,10.40
2015,04,02,13,30,10.50
2015,04,02,13,31,10.60
2015,04,02,13,32,10.60
2015,04,02,13,33,10.60
2015,04,02,13,34,10.60
2015,04,02,13,35,10.50
2015,04,02,13,36,10.50
2015,04,02,13,37,10.60
2015,04,02,13,38,10.60
2015,04,02,13,39,10.70
2015,04,02,13,40,10.80
2015,04,02,13,41,10.90
2015,04,02,13,42,10.80
2015,04,02,13,43,10.80
2015,04,02,13,44,10.60
2015,04,02,13,45,10.50
2015,04,02,13,46,10.40
2015,04,02,13,47,10.60
2015,04,02,13,48,10.60
2015,04,02,13,49,10.80
2015,04,02,13,50,10.90
2015,04,02,13,51,10.70
2015,04,02,13,52,10.60
2015,04,02,13,53,10.60
2015,04,02,13,54,10.60
2015,04,02,13,55,10.70
2015,04,02,13,56,10.80
2015,04,02,13,57,10.90
2015,04,02,13,58,10.80
2015,04,02,13,59,10.80
2015,04,02,14,00,10.70
2015,04,02,14,01,10.70
2015,04,02,14,02,10.70
2015,04,02,14,03,10.90
2015,04,02,14,04,11.10
2015,04,02,14,05,11.10
2015,04,02,14,06,11.10
2015,04,02,14,07,11.10
2015,04,02,14,08,11.20
2015,04,02,14,09,11.20
2015,04,02,14,10,11.00
2015,04,02,14,11,10.90
2015,04,02,14,12,10.70
2015,04,02,14,13,10.70
2015,04,02,14,14,10.60
2015,04,02,14,15,10.50
2015,04,02,14,16,10.40
2015,04,02,14,17,10.40
2015,04,02,14,18,10.40
2015,04,02,14,19,10.40
2015,04,02,14,20,10.60
2015,04,02,14,21,10.60
2015,04,02,14,22,10.70
2015,04,02,14,23,10.90
2015,04,02,14,24,10.90
2015,04,02,14,25,11.00
2015,04,02,14,26,11.10
2015,04,02,14,27,11.10
2015,04,02,14,28,11.00
2015,04,02,14,29,10.80
2015,04,02,14,30,10.70
2015,04,02,14,31,10.60
2015,04,02,14,32,10.50
2015,04,02,14,33,10.40
2015,04,02,14,34,10.40
2015,04,02,14,35,10.30
2015,04,02,14,36,10.30
2015,04,02,14,37,10.40
2015,04,02,14,38,10.40
2015,04,02,14,39,10.40
2015,04,02,14,40,10.40
2015,04,02,14,41,10.40
2015,04,02,14,42,10.40
2015,04,02,14,43,10.40
2015,04,02,14,44,10.40
2015,04,02,14,45,10.40
2015,04,02,14,46,10.50
2015,04,02,14,47,10.60
2015,04,02,14,48,10.60
2015,04,02,14,49,10.60
2015,04,02,14,50,10.60
2015,04,02,14,51,10.50
2015,04,02,14,52,10.40
2015,04,02,14,53,10.30
2015,04,02,14,54,10.30
2015,04,02,14,55,10.30
2015,04,02,14,56,10.40
2015,04,02,14,57,10.40
2015,04,02,14,58,10.50
2015,04,02,14,59,10.60
2015,04,02,15,00,10.60
2015,04,02,15,01,10.60
2015,04,02,15,02,10.60
2015,04,02,15,03,10.60
2015,04,02,15,04,10.60
2015,04,02,15,05,10.60
2015,04,02,15,06,10.60
2015,04,02,15,07,10.60
2015,04,02,15,08,10.70
2015,04,02,15,09,10.60
2015,04,02,15,10,10.40
2015,04,02,15,11,10.40
2015,04,02,15,12,10.50
2015,04,02,15,13,10.60
2015,04,02,15,14,10.60
2015,04,02,15,15,10.80
2015,04,02,15,16,10.90
2015,04,02,15,17,10.90
2015,04,02,15,18,10.80
2015,04,02,15,19,10.80
2015,04,02,15,20,10.80
2015,04,02,15,21,10.90
2015,04,02,15,22,10.90
2015,04,02,15,23,11.00
2015,04,02,15,24,11.00
2015,04,02,15,25,10.90
2015,04,02,15,26,11.00
2015,04,02,15,27,11.10
2015,04,02,15,28,11.10
2015,04,02,15,29,11.00
2015,04,02,15,30,10.90
2015,04,02,15,31,10.90
2015,04,02,15,32,11.10
2015,04,02,15,33,11.20
2015,04,02,15,34,11.20
2015,04,02,15,35,11.20
2015,04,02,15,36,11.20
2015,04,02,15,37,11.30
2015,04,02,15,38,11.30
2015,04,02,15,39,11.30
2015,04,02,15,40,11.40
2015,04,02,15,41,11.40
2015,04,02,15,42,11.40
2015,04,02,15,43,11.40
2015,04,02,15,44,11.40
2015,04,02,15,45,11.40
2015,04,02,15,46,11.40
2015,04,02,15,47,11.20
2015,04,02,15,48,11.20
2015,04,02,15,49,11.10
2015,04,02,15,50,11.10
2015,04,02,15,51,11.10
2015,04,02,15,52,11.10
2015,04,02,15,53,11.00
2015,04,02,15,54,10.90
2015,04,02,15,55,10.90
2015,04,02,15,56,10.90
2015,04,02,15,57,10.90
2015,04,02,15,58,10.90
2015,04,02,15,59,10.80
2015,04,02,16,00,10.80
2015,04,02,16,01,10.70
2015,04,02,16,02,10.80
2015,04,02,16,03,10.90
2015,04,02,16,04,11.00
2015,04,02,16,05,11.10
2015,04,02,16,06,11.00
2015,04,02,16,07,10.90
2015,04,02,16,08,10.90
2015,04,02,16,09,10.90
2015,04,02,16,10,10.90
2015,04,02,16,11,10.90
2015,04,02,16,12,11.10
2015,04,02,16,13,11.10
2015,04,02,16,14,11.20
2015,04,02,16,15,11.30
2015,04,02,16,16,11.30
2015,04,02,16,17,11.20
2015,04,02,16,18,11.20
2015,04,02,16,19,11.30
2015,04,02,16,20,11.30
2015,04,02,16,21,11.40
2015,04,02,16,22,11.40
2015,04,02,16,23,11.40
2015,04,02,16,24,11.40
2015,04,02,16,25,11.30
2015,04,02,16,26,11.30
2015,04,02,16,27,11.30
2015,04,02,16,28,11.30
2015,04,02,16,29,11.40
2015,04,02,16,30,11.50
2015,04,02,16,31,11.60
2015,04,02,16,32,11.60
2015,04,02,16,33,11.70
2015,04,02,16,34,11.80
2015,04,02,16,35,11.70
2015,04,02,16,36,11.70
2015,04,02,16,37,11.60
2015,04,02,16,38,11.60
2015,04,02,16,39,11.60
2015,04,02,16,40,11.60
2015,04,02,16,41,11.70
2015,04,02,16,42,11.70
2015,04,02,16,43,11.70
2015,04,02,16,44,11.70
2015,04,02,16,45,11.70
2015,04,02,16,46,11.70
2015,04,02,16,47,11.60
2015,04,02,16,48,11.60
2015,04,02,16,49,11.60
2015,04,02,16,50,11.50
2015,04,02,16,51,11.40
2015,04,02,16,52,11.40
2015,04,02,16,53,11.40
2015,04,02,16,54,11.40
2015,04,02,16,55,11.30
2015,04,02,16,56,11.30
2015,04,02,16,57,11.40
2015,04,02,16,58,11.40
2015,04,02,16,59,11.60
2015,04,02,17,00,11.60
2015,04,02,17,01,11.60
2015,04,02,17,02,11.60
2015,04,02,17,03,11.60
2015,04,02,17,04,11.70
2015,04,02,17,05,11.60
2015,04,02,17,06,11.60
2015,04,02,17,07,11.40
2015,04,02,17,08,11.30
2015,04,02,17,09,11.30
2015,04,02,17,10,11.20
2015,04,02,17,11,11.10
2015,04,02,17,12,11.10
2015,04,02,17,13,10.90
2015,04,02,17,14,11.00
2015,04,02,17,15,11.10
2015,04,02,17,16,11.00
2015,04,02,17,17,11.00
2015,04,02,17,18,11.00
2015,04,02,17,19,10.90
2015,04,02,17,20,10.90
2015,04,02,17,21,10.90
2015,04,02,17,22,10.90
2015,04,02,17,23,10.90
2015,04,02,17,24,10.90
2015,04,02,17,25,11.00
2015,04,02,17,26,11.10
2015,04,02,17,27,11.10
2015,04,02,17,28,11.10
2015,04,02,17,29,11.10
2015,04,02,17,30,11.10
2015,04,02,17,31,11.10
2015,04,02,17,32,11.10
2015,04,02,17,33,11.10
2015,04,02,17,34,11.20
2015,04,02,17,35,11.20
2015,04,02,17,36,11.30
2015,04,02,17,37,11.30
2015,04,02,17,38,11.30
2015,04,02,17,39,11.40
2015,04,02,17,40,11.40
2015,04,02,17,41,11.30
2015,04,02,17,42,11.20
2015,04,02,17,43,11.10
2015,04,02,17,44,11.00
2015,04,02,17,45,11.00
2015,04,02,17,46,10.90
2015,04,02,17,47,11.00
2015,04,02,17,48,11.10
2015,04,02,17,49,11.10
2015,04,02,17,50,11.10